User: anonymous   Login
Location: Carnetin
(48.9010°N, 2.7059°E)
Time: 12:52:09
(UTC+00:00)
Language:

CZ-2D R/B - Orbit

View from above orbital plane
View from above orbital plane
View from above satellite
View from above satellite

Ground track
Ground track

The orbit data is extracted from the following two-line orbital elements,

1 28738U 05024B   22021.94720094  .00001655  00000-0  97545-4 0  9992
2 28738  97.3549  35.2030 0010863 333.4517  26.6156 15.12874950909617
Epoch (UTC): 21 January 2022 22:43:58
Eccentricity: 0.0010863
inclination: 97.3549°
perigee height: 520 km
apogee height: 535 km
right ascension of ascending node: 35.2030°
argument of perigee: 333.4517°
revolutions per day: 15.12874950
mean anomaly at epoch: 26.6156°
orbit number at epoch: 90961

The dashed part of the orbit path shows where the satellite is in the earth's shadow,  

DLR